User: anonymous   Login
Location: Azul
(36.7830°S, 59.8500°W)
Time: 09:40:56
(UTC-03:00)
Language:

AAUSAT CUBESAT 2 - Orbit

View from above orbital plane
View from above orbital plane
View from above satellite
View from above satellite

Ground track
Ground track

The orbit data is extracted from the following two-line orbital elements,

1 32788U 08021F   21294.92985333  .00001580  00000-0  14619-3 0  9997
2 32788  97.5151 284.3628 0010866 197.0555 163.0303 14.95853883732860
Epoch (UTC): 21 October 2021 22:18:59
Eccentricity: 0.0010866
inclination: 97.5151°
perigee height: 572 km
apogee height: 587 km
right ascension of ascending node: 284.3628°
argument of perigee: 197.0555°
revolutions per day: 14.95853883
mean anomaly at epoch: 163.0303°
orbit number at epoch: 73286

The dashed part of the orbit path shows where the satellite is in the earth's shadow,  

DLR